Location: Unspecified
(0.0000°N, 0.0000°E)
Time: 09:57:47
(UTC+00:00)

A-11 Canister half - Pass Details

Date: 01 August 2021
Orbit: 1526 x 1683 km, 47.3° (Epoch: 27 September)

Event Time Altitude Azimuth Distance (km) Brightness Sun altitude
Rises 20:41:12 0° 309° (NW) 4,736 12.5 -36.6°
Reaches altitude 10° 20:44:23 10° 305° (NW) 3,735 11.7 -37.3°
Maximum altitude 20:53:27 54° 230° (SW) 1,817 9.3 -39.4°
Enters shadow 20:53:45 53° 224° (SW) 1,819 9.3 -39.4°
